Back to catalog

STARLINK-38160

AliveCommunicationsSSO
NORAD 100121·PAYLOAD·🇺🇸 United States

Launched Jul 21, 2026 from Vandenberg Space Force Base

Loading…

Next Passes (next 24 hours)

TLE

FreshSource: Space-Track

Epoch: Sep 14, 2026, 07:45 UTC

1 A0121U 26166W   26257.32302983  .00138367  00000-0  91320-3 0  9993
2 A0121  97.2836 275.4079 0001831  85.7917 274.3557 15.75199258  8637

Track STARLINK-38160 in real time with AllMySat

Download on the App Store